Time,TemperatureF,DewpointF,PressureIn,WindDirection,WindDirectionDegrees,WindSpeedMPH,WindSpeedGustMPH,Humidity,HourlyPrecipIn,Conditions,Clouds,dailyrainin,SoftwareType,DateUTC
2013-03-09 13:01:00,37.0,31.0,29.93,SSW,198,7.0,18.0,80,0.00,,,0.00,,2013-03-09 19:01:00,
2013-03-09 13:11:00,37.0,31.0,29.93,SSW,198,7.0,18.0,80,0.00,,,0.00,,2013-03-09 19:11:00,
2013-03-09 13:22:00,37.0,31.0,29.93,SSW,192,8.0,16.0,80,0.00,,,0.00,,2013-03-09 19:22:00,
2013-03-09 13:32:00,37.0,31.0,29.91,South,181,7.0,18.0,80,0.00,,,0.00,,2013-03-09 19:32:00,
2013-03-09 13:42:00,37.0,31.0,29.91,South,181,7.0,18.0,80,0.00,,,0.00,,2013-03-09 19:42:00,
2013-03-09 13:51:00,37.0,31.0,29.91,South,188,6.0,14.0,80,0.00,,,0.00,,2013-03-09 19:51:00,
2013-03-09 14:01:00,37.0,32.0,29.90,South,191,9.0,18.0,81,0.00,,,0.00,,2013-03-09 20:01:00,
2013-03-09 14:11:00,37.0,32.0,29.90,South,191,9.0,18.0,81,0.00,,,0.00,,2013-03-09 20:11:00,
2013-03-09 14:21:00,37.0,31.0,29.90,SSW,193,8.0,18.0,80,0.00,,,0.00,,2013-03-09 20:21:00,
2013-03-09 14:32:00,37.0,31.0,29.90,SSW,192,7.0,18.0,79,0.00,,,0.00,,2013-03-09 20:32:00,
2013-03-09 14:42:00,37.0,31.0,29.90,SSW,192,7.0,18.0,79,0.00,,,0.00,,2013-03-09 20:42:00,
2013-03-09 14:52:00,37.0,30.0,29.90,South,182,8.0,21.0,77,0.00,,,0.00,,2013-03-09 20:52:00,
2013-03-09 15:02:00,37.0,30.0,29.88,South,175,8.0,24.0,76,0.00,,,0.00,,2013-03-09 21:02:00,
2013-03-09 15:12:00,37.0,30.0,29.88,South,175,8.0,24.0,76,0.00,,,0.00,,2013-03-09 21:12:00,
2013-03-09 15:22:00,38.0,31.0,29.88,South,179,7.0,18.0,75,0.00,,,0.00,,2013-03-09 21:22:00,
2013-03-09 15:32:00,38.0,30.0,29.86,South,179,7.0,19.0,74,0.00,,,0.00,,2013-03-09 21:32:00,
2013-03-09 15:42:00,38.0,30.0,29.86,South,179,7.0,19.0,74,0.00,,,0.00,,2013-03-09 21:42:00,
2013-03-09 15:52:00,38.0,30.0,29.86,South,179,7.0,20.0,73,0.00,,,0.00,,2013-03-09 21:52:00,
2013-03-09 16:01:00,38.0,30.0,29.86,South,179,7.0,20.0,73,0.00,,,0.00,,2013-03-09 22:01:00,
2013-03-09 16:11:00,38.0,30.0,29.86,South,179,7.0,20.0,73,0.00,,,0.00,,2013-03-09 22:11:00,
2013-03-09 16:21:00,38.0,30.0,29.84,South,175,7.0,17.0,72,0.00,,,0.00,,2013-03-09 22:21:00,
2013-03-09 16:32:00,38.0,30.0,29.84,South,178,7.0,17.0,72,0.00,,,0.00,,2013-03-09 22:32:00,
2013-03-09 16:42:00,38.0,30.0,29.84,South,178,7.0,17.0,72,0.00,,,0.00,,2013-03-09 22:42:00,
2013-03-09 16:52:00,38.0,30.0,29.83,South,187,7.0,18.0,72,0.00,,,0.00,,2013-03-09 22:52:00,
2013-03-09 17:01:00,38.0,30.0,29.83,South,183,7.0,16.0,73,0.00,,,0.00,,2013-03-09 23:01:00,
2013-03-09 17:11:00,38.0,30.0,29.83,South,183,7.0,16.0,73,0.00,,,0.00,,2013-03-09 23:11:00,
2013-03-09 17:21:00,38.0,31.0,29.83,South,179,8.0,15.0,75,0.00,,,0.00,,2013-03-09 23:21:00,
2013-03-09 17:32:00,37.0,31.0,29.82,South,172,8.0,16.0,78,0.00,,,0.00,,2013-03-09 23:32:00,
2013-03-09 17:41:00,37.0,31.0,29.82,South,172,8.0,16.0,78,0.00,,,0.00,,2013-03-09 23:41:00,
2013-03-09 17:52:00,37.0,31.0,29.80,South,185,7.0,18.0,80,0.00,,,0.00,,2013-03-09 23:52:00,
2013-03-09 18:01:00,37.0,32.0,29.81,South,181,7.0,16.0,82,0.00,,,0.00,,2013-03-10 00:01:00,
2013-03-09 18:11:00,37.0,32.0,29.81,South,181,7.0,16.0,82,0.00,,,0.00,,2013-03-10 00:11:00,
2013-03-09 18:22:00,36.0,32.0,29.80,South,171,8.0,19.0,85,0.00,,,0.00,,2013-03-10 00:22:00,
2013-03-09 18:32:00,36.0,32.0,29.79,South,173,8.0,21.0,86,0.00,,,0.00,,2013-03-10 00:32:00,
2013-03-09 18:42:00,36.0,32.0,29.79,South,173,8.0,21.0,86,0.00,,,0.00,,2013-03-10 00:42:00,
2013-03-09 18:52:00,36.0,32.0,29.79,South,175,9.0,19.0,86,0.00,,,0.00,,2013-03-10 00:52:00,
2013-03-09 19:01:00,36.0,32.0,29.79,South,175,9.0,19.0,86,0.00,,,0.00,,2013-03-10 01:01:00,
2013-03-09 19:11:00,36.0,32.0,29.79,South,175,9.0,19.0,86,0.00,,,0.00,,2013-03-10 01:11:00,
2013-03-09 19:21:00,36.0,33.0,29.77,South,181,9.0,19.0,87,0.00,,,0.00,,2013-03-10 01:21:00,
2013-03-09 19:32:00,36.0,33.0,29.77,South,178,7.0,16.0,88,0.00,,,0.00,,2013-03-10 01:32:00,
2013-03-09 19:42:00,36.0,33.0,29.77,South,178,7.0,16.0,88,0.00,,,0.00,,2013-03-10 01:42:00,
2013-03-09 19:52:00,36.0,33.0,29.77,South,179,7.0,17.0,88,0.00,,,0.00,,2013-03-10 01:52:00,
2013-03-09 20:01:00,36.0,33.0,29.76,South,177,8.0,17.0,89,0.00,,,0.00,,2013-03-10 02:01:00,
2013-03-09 20:11:00,36.0,33.0,29.76,South,177,8.0,17.0,89,0.00,,,0.00,,2013-03-10 02:11:00,
2013-03-09 20:22:00,36.0,33.0,29.76,South,174,7.0,17.0,89,0.00,,,0.00,,2013-03-10 02:22:00,
2013-03-09 20:32:00,36.0,33.0,29.76,South,176,6.0,14.0,89,0.00,,,0.00,,2013-03-10 02:32:00,
2013-03-09 20:42:00,36.0,33.0,29.76,South,176,6.0,14.0,89,0.00,,,0.00,,2013-03-10 02:42:00,
2013-03-09 20:52:00,36.0,34.0,29.75,South,184,7.0,17.0,91,0.00,,,0.00,,2013-03-10 02:52:00,
2013-03-09 21:01:00,36.0,34.0,29.75,South,184,7.0,17.0,91,0.00,,,0.00,,2013-03-10 03:01:00,
2013-03-09 21:11:00,36.0,34.0,29.75,South,184,7.0,17.0,91,0.00,,,0.00,,2013-03-10 03:11:00,
2013-03-09 21:22:00,36.0,34.0,29.75,South,184,7.0,17.0,91,0.00,,,0.00,,2013-03-10 03:22:00,